Date String (YYYY-MM-DD hh:mm:ss) UTC,Instrument flags,Ambient pressure (hPa),Sample flow (lpm),Bypass flow (lpm),Sample temperature (°C),Ambient temperature (°C),ASC tube jacket temperature (°C),LED temperature (°C),Box temperature (°C),Sample RH (%),Span deviation,Mass concentration (μg/m³),Mass concentration (μg/m³),Mass concentration (μg/m³)
DateTimeUTC,F1_M11,P_M11,Q1_M11,Q2_M11,T1_M11,T2_M11,T3_M11,T4_M11,T5_M11,U1_M11,ZSPAN_M11,X0_M11,X2_M11,X1_M11
2021-12-17 04:00:00,,0818.5,5.00,0.00,24.0,23.0,00.0,33.2,25.5,06.9,0000.0,0016.69,0003.81,0001.86
2021-12-17 04:01:00,,0818.5,5.00,0.00,24.0,23.0,00.0,33.2,25.6,06.9,0000.0,0016.77,0003.83,0001.86
2021-12-17 04:02:00,,0818.5,5.00,0.00,24.0,23.1,00.0,33.1,25.6,06.9,0000.0,0016.10,0003.82,0001.87
2021-12-17 04:03:00,,0818.6,4.99,0.00,24.0,23.1,00.0,33.1,25.6,06.9,0000.0,0014.70,0003.80,0001.88
2021-12-17 04:04:00,,0818.6,5.01,0.00,23.9,23.0,00.0,33.1,25.6,06.9,0000.0,0014.77,0003.81,0001.88
2021-12-17 04:05:00,,0818.6,5.00,0.00,23.9,23.0,00.0,33.1,25.5,06.9,0000.0,0014.99,0003.80,0001.89
2021-12-17 04:06:00,,0818.6,4.99,0.00,23.9,23.0,00.0,33.1,25.5,06.9,0000.0,0015.39,0003.83,0001.87
2021-12-17 04:07:00,,0818.5,5.00,0.00,23.9,23.0,00.0,33.1,25.6,06.9,0000.0,0014.87,0003.86,0001.88
2021-12-17 04:08:00,,0818.5,5.00,0.00,23.9,23.0,00.0,33.0,25.6,06.9,0000.0,0013.67,0003.86,0001.89
2021-12-17 04:09:00,,0818.5,5.00,0.00,23.9,23.1,00.0,33.0,25.6,06.9,0000.0,0014.09,0003.84,0001.88
2021-12-17 04:10:00,,0818.5,4.99,0.00,23.9,23.1,00.0,33.0,25.6,06.9,0000.0,0013.71,0003.80,0001.87
2021-12-17 04:11:00,,0818.6,5.02,0.00,24.0,23.1,00.0,33.0,25.7,06.9,0000.0,0012.93,0003.79,0001.87
2021-12-17 04:12:00,,0818.7,4.99,0.00,24.0,23.1,00.0,33.0,25.7,06.9,0000.0,0013.09,0003.87,0001.87
2021-12-17 04:13:00,,0818.6,5.00,0.00,24.0,23.1,00.0,33.0,25.6,06.9,0000.0,0013.26,0003.89,0001.85
2021-12-17 04:14:00,,0818.6,5.00,0.00,23.9,23.1,00.0,33.0,25.6,06.9,0000.0,0013.45,0003.86,0001.82
2021-12-17 04:15:00,,0818.7,5.00,0.00,24.0,23.1,00.0,33.0,25.7,07.0,0000.0,0013.25,0003.80,0001.82
2021-12-17 04:16:00,,0818.5,4.99,0.00,23.9,23.1,00.0,33.0,25.6,07.0,0000.0,0012.98,0003.75,0001.78
2021-12-17 04:17:00,,0818.6,5.01,0.00,23.9,23.1,00.0,33.0,25.6,06.9,0000.0,0013.19,0003.73,0001.76
2021-12-17 04:18:00,,0818.7,4.99,0.00,23.9,23.1,00.0,33.0,25.6,07.0,0000.0,0012.71,0003.66,0001.75
2021-12-17 04:19:00,,0818.7,5.00,0.00,23.9,23.1,00.0,33.0,25.6,07.0,0000.0,0013.42,0003.70,0001.71
2021-12-17 04:20:00,,0818.8,5.00,0.00,23.9,23.0,00.0,33.0,25.5,07.0,0000.0,0013.43,0003.72,0001.68
2021-12-17 04:21:00,,0818.7,4.99,0.00,23.9,23.0,00.0,33.0,25.5,07.2,0000.0,0013.92,0003.76,0001.65
2021-12-17 04:22:00,,0818.7,5.01,0.00,23.8,23.0,00.0,32.9,25.5,07.5,0000.0,0015.02,0003.64,0001.57
2021-12-17 04:23:00,,0818.8,4.99,0.00,23.8,23.0,00.0,32.9,25.5,07.6,0000.0,0014.49,0003.47,0001.50
2021-12-17 04:24:00,,0818.7,5.01,0.00,23.8,23.0,00.0,32.9,25.5,07.5,0000.0,0014.63,0003.39,0001.44
2021-12-17 04:25:00,,0818.7,4.99,0.00,23.8,22.9,00.0,32.9,25.4,07.8,0000.0,0014.29,0003.30,0001.39
2021-12-17 04:26:00,,0818.7,5.01,0.00,23.8,22.9,00.0,32.9,25.4,07.8,0000.0,0014.09,0003.21,0001.30
2021-12-17 04:27:00,,0818.8,5.00,0.00,23.8,22.9,00.0,32.9,25.4,07.7,0000.0,0013.98,0003.15,0001.24
2021-12-17 04:28:00,,0818.8,4.99,0.00,23.7,22.8,00.0,32.9,25.3,07.7,0000.0,0013.01,0003.01,0001.18
2021-12-17 04:29:00,,0818.7,5.00,0.00,23.7,22.8,00.0,32.9,25.3,07.9,0000.0,0012.38,0002.83,0001.11
2021-12-17 04:30:00,,0818.7,5.00,0.00,23.7,22.8,00.0,32.8,25.3,08.1,0000.0,0011.23,0002.45,0001.03
2021-12-17 04:31:00,,0818.7,5.00,0.00,23.7,22.8,00.0,32.8,25.3,08.3,0000.0,0010.37,0002.13,0000.93
2021-12-17 04:32:00,,0818.8,5.01,0.00,23.7,22.8,00.0,32.8,25.3,08.4,0000.0,0008.86,0001.81,0000.84
2021-12-17 04:33:00,,0818.8,5.00,0.00,23.7,22.8,00.0,32.8,25.3,08.6,0000.0,0007.16,0001.71,0000.80
2021-12-17 04:34:00,,0818.9,4.99,0.00,23.7,22.8,00.0,32.8,25.2,08.4,0000.0,0006.70,0001.59,0000.75
2021-12-17 04:35:00,,0818.9,5.01,0.00,23.6,22.8,00.0,32.8,25.3,08.5,0000.0,0007.09,0001.44,0000.71
2021-12-17 04:36:00,,0818.8,5.01,0.00,23.6,22.8,00.0,32.8,25.2,08.4,0000.0,0006.74,0001.34,0000.68
2021-12-17 04:37:00,,0818.8,5.00,0.00,23.6,22.7,00.0,32.7,25.2,08.2,0000.0,0006.34,0001.29,0000.66
2021-12-17 04:38:00,,0818.8,5.01,0.00,23.6,22.7,00.0,32.7,25.2,08.4,0000.0,0005.62,0001.23,0000.65
2021-12-17 04:39:00,,0818.8,4.99,0.00,23.6,22.7,00.0,32.7,25.2,08.9,0000.0,0005.22,0001.10,0000.61
2021-12-17 04:40:00,,0818.8,4.99,0.00,23.6,22.6,00.0,32.7,25.2,09.0,0000.0,0004.89,0001.00,0000.57
2021-12-17 04:41:00,,0818.8,4.99,0.00,23.6,22.6,00.0,32.7,25.2,09.0,0000.0,0004.69,0000.94,0000.55
2021-12-17 04:42:00,,0818.7,5.01,0.00,23.6,22.7,00.0,32.7,25.2,09.0,0000.0,0004.62,0000.93,0000.54
2021-12-17 04:43:00,,0818.8,4.99,0.00,23.6,22.6,00.0,32.7,25.2,09.1,0000.0,0004.58,0000.91,0000.53
2021-12-17 04:44:00,,0818.7,4.99,0.00,23.6,22.6,00.0,32.7,25.2,09.0,0000.0,0004.25,0000.86,0000.52
2021-12-17 04:45:00,,0818.7,5.01,0.00,23.6,22.6,00.0,32.7,25.2,08.8,0000.0,0003.93,0000.85,0000.52
2021-12-17 04:46:00,,0818.8,5.01,0.00,23.5,22.6,00.0,32.7,25.1,09.0,0000.0,0002.41,0000.85,0000.52
2021-12-17 04:47:00,,0818.8,5.00,0.00,23.5,22.6,00.0,32.6,25.1,09.1,0000.0,0002.45,0000.80,0000.51
2021-12-17 04:48:00,,0818.8,4.99,0.00,23.5,22.6,00.0,32.6,25.0,09.2,0000.0,0002.36,0000.76,0000.50
2021-12-17 04:49:00,,0818.8,5.02,0.00,23.5,22.6,00.0,32.6,25.1,09.3,0000.0,0002.16,0000.69,0000.48
2021-12-17 04:50:00,,0818.8,4.99,0.00,23.5,22.6,00.0,32.6,25.1,09.4,0000.0,0002.14,0000.67,0000.47
2021-12-17 04:51:00,,0818.8,5.01,0.00,23.4,22.5,00.0,32.6,25.0,09.4,0000.0,0002.10,0000.65,0000.46
2021-12-17 04:52:00,,0818.8,4.99,0.00,23.4,22.5,00.0,32.6,25.0,09.5,0000.0,0002.01,0000.60,0000.45
2021-12-17 04:53:00,,0818.8,5.00,0.00,23.4,22.4,00.0,32.6,25.0,09.5,0000.0,0001.94,0000.58,0000.44
2021-12-17 04:54:00,,0818.8,5.01,0.00,23.4,22.4,00.0,32.5,24.9,09.6,0000.0,0001.89,0000.59,0000.44
2021-12-17 04:55:00,,0818.8,4.99,0.00,23.4,22.4,00.0,32.5,25.0,09.6,0000.0,0002.05,0000.63,0000.44
2021-12-17 04:56:00,,0818.8,5.00,0.00,23.3,22.4,00.0,32.5,24.9,09.7,0000.0,0002.14,0000.62,0000.43
2021-12-17 04:57:00,,0818.9,5.01,0.00,23.3,22.3,00.0,32.5,24.9,09.7,0000.0,0001.92,0000.59,0000.42
2021-12-17 04:58:00,,0818.8,4.99,0.00,23.3,22.3,00.0,32.5,24.9,09.7,0000.0,0001.14,0000.60,0000.41
2021-12-17 04:59:00,,0818.8,4.99,0.00,23.2,22.2,00.0,32.4,24.8,09.7,0000.0,0001.20,0000.60,0000.41
